Weather History for Cape Town, South Africa

Change the Weather History Date:

Monday, September 2, 2013

  Actual Average Record
Temperature  
Mean Temperature 52 °F -  
Max Temperature 63 °F 64 °F 71 °F (1999)
Min Temperature 42 °F 47 °F 36 °F (2012)
Degree Days  
Heating Degree Days 12    
Growing Degree Days 2 (Base 50)    
Moisture  
Dew Point 44 °F    
Average Humidity 69    
Maximum Humidity 82    
Minimum Humidity 42    
Precipitation  
Precipitation 0.00 in 0.05 in - ()
Sea Level Pressure  
Sea Level Pressure 30.04 in    
Wind  
Wind Speed 9 mph ()    
Max Wind Speed 21 mph    
Max Gust Speed -    
Visibility 7.0 miles    
Events Rain    
Averages and records for this station are not official NWS values.
T = Trace of Precipitation, MM = Missing Value Source: Averaged Metar Reports

Daily Weather History Graph

Daily Weather History Graph

Search for Another Location

Airport:

Trip Planner

Search our weather history database for the weather conditions in past years. The results will help you decide how hot, cold, wet, or windy it might be!

Date:

Astronomy

Sep. 02, 2013 Rise Set
Actual Time 7:02 AM SAST 6:28 PM SAST
Civil Twilight 6:37 AM SAST 6:53 PM SAST
Nautical Twilight 6:08 AM SAST 7:22 PM SAST
Astronomical Twilight 5:39 AM SAST 7:51 PM SAST
Moon 4:51 AM SAST (9/2) 3:51 PM SAST (9/2)
Length of Visible Light 12h 16m
Length of Day
11h 25m
Waning Crescent, 9% of the Moon is Illuminated
Sep 2
Waning Crescent
Sep 5
New
Sep 12
First Quarter
Sep 19
Full
Sep 27
Last Quarter

Hourly Weather History & Observations

Time (SAST) Temp. Windchill Dew Point Humidity Pressure Visibility Wind Dir Wind Speed Gust Speed Precip Events Conditions
12:00 AM 46.4 °F 42.9 °F 41.0 °F 81% 30.12 in - NE 6.9 mph - N/A   Clear
1:00 AM 48.2 °F - 42.8 °F 82% 30.12 in - NNE 6.9 mph - N/A   Clear
2:00 AM 46 °F - 41 °F 77% 30.12 in 12 mi North 4.6 mph - -  
2:00 AM 46.4 °F 43.5 °F 41.0 °F 81% 30.09 in - North 5.8 mph - N/A   Clear
3:00 AM 46.4 °F 42.9 °F 41.0 °F 81% 30.09 in - North 6.9 mph - N/A   Clear
4:00 AM 42.8 °F 38.6 °F 37.4 °F 81% 30.06 in - NE 6.9 mph - N/A   Clear
5:00 AM 43 °F - 37 °F 74% 30.06 in 6 mi NE 6.9 mph - -  
5:00 AM 42.8 °F 38.6 °F 37.4 °F 81% 30.04 in - NNE 6.9 mph - N/A   Clear
6:00 AM 42.8 °F 39.3 °F 37.4 °F 81% 30.04 in - NNE 5.8 mph - N/A   Clear
7:00 AM 44.6 °F 41.4 °F 37.4 °F 76% 30.04 in - North 5.8 mph - N/A   Clear
8:00 AM 46.4 °F 44.3 °F 41.0 °F 81% 30.04 in - NNE 4.6 mph - N/A   Clear
9:00 AM 53.6 °F - 44.6 °F 72% 30.04 in - North 6.9 mph - N/A   Clear
10:00 AM 57.2 °F - 42.8 °F 59% 30.04 in - NNW 10.4 mph - N/A   Clear
11:00 AM 59 °F - 44 °F 47% 30.03 in 25 mi NW 12.7 mph - -  
11:00 AM 59.0 °F - 44.6 °F 59% 30.01 in - NNW 11.5 mph - N/A   Clear
12:00 PM 59.0 °F - 48.2 °F 67% 30.01 in - NW 15.0 mph - N/A   Clear
1:00 PM 60.8 °F - 48.2 °F 63% 30.01 in - NNW 15.0 mph - N/A   Clear
2:00 PM 62 °F - 45 °F 42% 29.98 in 25 mi NW 17.3 mph - -  
2:00 PM 62.6 °F - 44.6 °F 52% 29.98 in - NW 17.3 mph - N/A   Clear
3:00 PM 60.8 °F - 48.2 °F 63% 29.98 in - NW 16.1 mph - N/A   Clear
4:00 PM 60.8 °F - 48.2 °F 63% 29.95 in - NW 18.4 mph - N/A   Clear
5:00 PM 59 °F - 47 °F 55% 29.99 in 25 mi NW 19.6 mph - -   Scattered Clouds
5:00 PM 59.0 °F - 46.4 °F 63% 29.98 in 6.2 mi NW 19.6 mph - N/A   Partly Cloudy
6:00 PM 57.2 °F - 48.2 °F 72% 30.01 in 6.2 mi NW 20.7 mph - N/A   Partly Cloudy
7:00 PM 57.2 °F - 46.4 °F 67% 30.01 in 6.2 mi NW 19.6 mph - N/A   Partly Cloudy
8:00 PM 56 °F - 47 °F 65% 30.05 in 25 mi NW 16.1 mph - -   Scattered Clouds
8:00 PM 57.2 °F - 48.2 °F 72% 30.04 in 6.2 mi NNW 13.8 mph - N/A   Partly Cloudy
9:00 PM 57.2 °F - 48.2 °F 72% 30.04 in 6.2 mi ENE 5.8 mph - N/A   Scattered Clouds
10:00 PM 57.2 °F - 48.2 °F 72% 30.06 in 6.2 mi North 13.8 mph - N/A   Mostly Cloudy
11:00 PM 56 °F - 49 °F 69% 30.09 in 9 mi North 11.5 mph - - Rain Light Drizzle
11:00 PM 57.2 °F - 50.0 °F 77% 30.09 in 6.2 mi North 10.4 mph - N/A   Light Drizzle